Regional Weather Roundup
Issued by NWS

Home | Current Version | Previous Version | Text Only | Print | Product List | Glossary Off
Versions: 1 2 3 4 5 6 7 8 9 10 11 12 13 14 15 16 17 18 19 20 21 22 23 24 25 26 27 28 29 30 31 32 33 34 35 36 37 38 39 40 41 42 43 44 45 46 47 48 49 50

000
ASUS43 KLOT 030000
RWRIL

ILLINOIS REGIONAL WEATHER ROUNDUP
NATIONAL WEATHER SERVICE CHICAGO/ROMEOVILLE IL
600 PM CST MON MAR 02 2015

NOTE: "FAIR" INDICATES FEW OR NO CLOUDS BELOW 12,000 FEET WITH NO
SIGNIFICANT WEATHER AND/OR OBSTRUCTIONS TO VISIBILITY.

* THESE STATIONS ARE NOT UNDER NWS QUALITY CONTROL. THEY ALSO MAY NOT
  REPORT WEATHER SUCH AS PRECIPITATION OR FOG.

ILZ001-002-007-009-015-016-024-030100-
NORTHWEST ILLINOIS

CITY           SKY/WX    TMP DP  RH WIND       PRES   REMARKS
MOLINE         CLOUDY    27  17  66 SE6       30.35F WCI  20
6HR MIN TEMP:  26; 6HR MAX TEMP:  30;

STERLING*      CLOUDY    27  18  69 S5        30.37S WCI  21
$$

ILZ003-004-008-010-011-017-018-030100-
NORTH CENTRAL ILLINOIS

CITY           SKY/WX    TMP DP  RH WIND       PRES   REMARKS
ROCKFORD       CLOUDY    25  15  66 S10       30.37F WCI  15
6HR MIN TEMP:  25; 6HR MAX TEMP:  30;

$$

ILZ005-006-012>014-019>023-030100-
NORTHEAST ILLINOIS

CITY           SKY/WX    TMP DP  RH WIND       PRES   REMARKS
CHICAGO-OHARE  CLOUDY    28  19  69 SE9       30.36F WCI  19
6HR MIN TEMP:  27; 6HR MAX TEMP:  33;

CHICAGO-MIDWAY CLOUDY    30  16  56 S8        30.38F WCI  22
6HR MIN TEMP:  29; 6HR MAX TEMP:  34;

AURORA         MOCLDY    27  14  58 S8        30.37F WCI  19
6HR MIN TEMP:  24; 6HR MAX TEMP:  31;

WAUKEGAN       MOCLDY    25  17  72 SE8       30.37F WCI  16
6HR MIN TEMP:  24; 6HR MAX TEMP:  28;

DUPAGE AIRPORT CLOUDY    27  15  61 SW6       30.35F WCI  20
6HR MIN TEMP:  26; 6HR MAX TEMP:  31; 6HR PCP: TRACE;

WHEELING       MOCLDY    27  17  66 SE7       30.38F WCI  19
6HR MIN TEMP:  27; 6HR MAX TEMP:  32;

NORTHERLY ISL    N/A     26  20  77 SE7         N/A  WCI  19
$$

LMZ740>746-030100-
SOUTHERN LAKE MICHIGAN

STATION/POSITION SKY/WX   TEMP    WIND        PRES    VSBY  WAVE
                          AIR SEA DIR/SP/G                  HT/PER
                          (F)     (DEG/KT/KT) (MB)    (MI)  (FT/S)
WAUKEGAN HARBOR            26     150/  8/ 12   N/A
HARRISON CRIB              25     100/  9/ 10   N/A
BURNHAM HARBOR             26     130/  7/  8   N/A
CALUMET HARBOR             26     100/  7/  9   N/A
MICHIGAN CITY              23      40/  6/  7   N/A
$$

ILZ025>027-034>036-040-047-049-050-058-095>099-030100-
WEST-CENTRAL ILLINOIS

CITY           SKY/WX    TMP DP  RH WIND       PRES   REMARKS
QUINCY         CLOUDY    31  19  61 SE10      30.31F WCI  22
$$

ILZ028>032-037-038-041>044-048-051>054-059>061-030100-
CENTRAL ILLINOIS

CITY           SKY/WX    TMP DP  RH WIND       PRES   REMARKS
DECATUR        PTCLDY    26  20  77 E7        30.38F WCI  18
PEORIA         CLOUDY    29  18  63 S7        30.39R WCI  22
6HR MIN TEMP:  29; 6HR MAX TEMP:  36;

SPRINGFIELD    MOCLDY    29  20  69 E6        30.38F WCI  23
6HR MIN TEMP:  29; 6HR MAX TEMP:  35; 6HR PCP: TRACE;

TAYLORVILLE    NOT AVBL
$$

ILZ033-039-045-046-055>057-062-063-030100-
EAST-CENTRAL ILLINOIS

CITY           SKY/WX    TMP DP  RH WIND       PRES   REMARKS
CHAMPAIGN      MOCLDY    23  17  78 E6        30.38F WCI  16
MATTOON        PTCLDY    26  18  71 N6        30.38F WCI  19
$$

ILZ079-100>102-030100-
SOUTHWEST ILLINOIS

CITY           SKY/WX    TMP DP  RH WIND       PRES   REMARKS
ALTON          MOCLDY    30  14  51 E7        30.36F WCI  23
CAHOKIA*       MOCLDY    32  21  64 E6        30.37F WCI  26
$$

ILZ064>066-069>071-074>076-080>082-084>086-088>090-092>094-030100-
SOUTH-CENTRAL ILLINOIS

CITY           SKY/WX    TMP DP  RH WIND       PRES   REMARKS
CARBONDALE     MOCLDY    34  22  61 NE5       30.38S WCI  30
6HR MIN TEMP:  33; 6HR MAX TEMP:  39;

MARION         MOCLDY    36  21  55 NE6       30.39S WCI  31
MT. VERNON     MOCLDY    30  18  59 E5        30.38S WCI  25
$$

ILZ067-068-072-073-078-083-087-091-030100-
SOUTHEAST ILLINOIS

CITY           SKY/WX    TMP DP  RH WIND       PRES   REMARKS
LAWRENCEVILLE  CLOUDY    30  20  66 NE7       30.40F WCI  23
$$

ABBREVIATIONS USED IN REMARKS
   TC - TEMPERATURE IN CELSIUS
  WCI - WIND CHILL INDEX
   HX - HEAT INDEX
  VSB - VISIBILITY
$$




USA.gov is the U.S. government's official web portal to all federal, state and local government web resources and services.